TimeCST,TemperatureF,Dew PointF,Humidity,Sea Level PressureIn,VisibilityMPH,Wind Direction,Wind SpeedMPH,Gust SpeedMPH,PrecipitationIn,Events,Conditions,WindDirDegrees,DateUTC
12:15 AM,-8.5,-12.6,82,30.13,10.0,Calm,Calm,-,N/A,,Mostly Cloudy,0,2014-02-08 06:15:00
12:34 AM,-8.5,-12.8,81,30.13,10.0,Calm,Calm,-,N/A,,Mostly Cloudy,0,2014-02-08 06:34:00
12:55 AM,-9.0,-13.0,83,30.13,10.0,Calm,Calm,-,N/A,,Mostly Cloudy,0,2014-02-08 06:55:00
1:15 AM,-10.7,-15.2,80,30.13,10.0,Calm,Calm,-,N/A,,Scattered Clouds,0,2014-02-08 07:15:00
1:35 AM,-11.2,-15.9,80,30.13,10.0,Calm,Calm,-,N/A,,Scattered Clouds,0,2014-02-08 07:35:00
1:54 AM,-12.5,-16.8,81,30.13,10.0,Calm,Calm,-,N/A,,Scattered Clouds,0,2014-02-08 07:54:00
2:15 AM,-12.3,-16.8,80,30.13,10.0,Calm,Calm,-,N/A,,Scattered Clouds,0,2014-02-08 08:15:00
2:35 AM,-12.3,-16.6,81,30.12,10.0,Calm,Calm,-,N/A,,Scattered Clouds,0,2014-02-08 08:35:00
2:55 AM,-14.8,-19.7,79,30.12,10.0,Calm,Calm,-,N/A,,Scattered Clouds,0,2014-02-08 08:55:00
3:15 AM,-14.8,-19.5,79,30.12,10.0,Calm,Calm,-,N/A,,Clear,0,2014-02-08 09:15:00
3:35 AM,-14.4,-19.7,77,30.11,10.0,Calm,Calm,-,N/A,,Scattered Clouds,0,2014-02-08 09:35:00
3:55 AM,-14.4,-19.3,79,30.11,10.0,Calm,Calm,-,N/A,,Scattered Clouds,0,2014-02-08 09:55:00
4:15 AM,-13.0,-18.2,77,30.11,10.0,Calm,Calm,-,N/A,,Clear,0,2014-02-08 10:15:00
4:35 AM,-14.8,-19.7,79,30.11,10.0,Calm,Calm,-,N/A,,Scattered Clouds,0,2014-02-08 10:35:00
4:55 AM,-15.5,-20.6,78,30.10,10.0,Calm,Calm,-,N/A,,Scattered Clouds,0,2014-02-08 10:55:00
5:15 AM,-15.0,-20.6,76,30.10,10.0,Calm,Calm,-,N/A,,Clear,0,2014-02-08 11:15:00
5:35 AM,-16.2,-22.0,75,30.09,10.0,Calm,Calm,-,N/A,,Scattered Clouds,0,2014-02-08 11:35:00
5:54 AM,-16.8,-21.8,78,30.09,10.0,Calm,Calm,-,N/A,,Scattered Clouds,0,2014-02-08 11:54:00
6:15 AM,-16.6,-22.2,76,30.10,10.0,Calm,Calm,-,N/A,,Scattered Clouds,0,2014-02-08 12:15:00
6:35 AM,-17.3,-23.1,75,30.10,10.0,Calm,Calm,-,N/A,,Scattered Clouds,0,2014-02-08 12:35:00
6:54 AM,-18.6,-24.2,76,30.10,10.0,Calm,Calm,-,N/A,,Clear,0,2014-02-08 12:54:00
7:15 AM,-16.8,-22.0,77,30.10,10.0,Calm,Calm,-,N/A,,Scattered Clouds,0,2014-02-08 13:15:00
7:35 AM,-18.0,-23.8,75,30.11,10.0,Calm,Calm,-,N/A,,Clear,0,2014-02-08 13:35:00
7:54 AM,-15.9,-21.3,77,30.11,10.0,Calm,Calm,-,N/A,,Clear,0,2014-02-08 13:54:00
8:15 AM,-15.0,-20.0,78,30.12,10.0,Calm,Calm,-,N/A,,Clear,0,2014-02-08 14:15:00
8:34 AM,-12.1,-16.8,80,30.11,10.0,Calm,Calm,-,N/A,,Clear,0,2014-02-08 14:34:00
8:55 AM,-7.4,-11.6,82,30.11,10.0,Calm,Calm,-,N/A,,Clear,0,2014-02-08 14:55:00
9:14 AM,-5.1,-9.4,82,30.12,10.0,South,3.5,-,N/A,,Clear,170,2014-02-08 15:14:00
9:35 AM,-3.5,-7.6,82,30.11,10.0,Calm,Calm,-,N/A,,Clear,0,2014-02-08 15:35:00
9:55 AM,-2.2,-6.0,84,30.11,10.0,Calm,Calm,-,N/A,,Clear,0,2014-02-08 15:55:00
10:14 AM,-1.5,-5.4,83,30.11,10.0,Calm,Calm,-,N/A,,Clear,0,2014-02-08 16:14:00
10:35 AM,-0.4,-4.2,84,30.11,10.0,Calm,Calm,-,N/A,,Clear,0,2014-02-08 16:35:00
10:55 AM,1.2,-3.6,80,30.11,10.0,Calm,Calm,-,N/A,,Clear,0,2014-02-08 16:55:00
11:14 AM,2.5,-3.1,78,30.11,10.0,Calm,Calm,-,N/A,,Clear,0,2014-02-08 17:14:00
11:35 AM,4.1,-2.6,74,30.10,10.0,Calm,Calm,-,N/A,,Clear,0,2014-02-08 17:35:00
11:54 AM,6.1,-1.7,71,30.10,10.0,Calm,Calm,-,N/A,,Clear,0,2014-02-08 17:54:00
12:15 PM,7.5,-0.9,68,30.09,10.0,Calm,Calm,-,N/A,,Clear,0,2014-02-08 18:15:00
12:35 PM,8.8,-0.4,66,30.08,10.0,Calm,Calm,-,N/A,,Clear,0,2014-02-08 18:35:00
12:54 PM,10.4,0.9,65,30.08,10.0,Calm,Calm,-,N/A,,Clear,0,2014-02-08 18:54:00
1:15 PM,12.7,2.5,64,30.08,10.0,Calm,Calm,-,N/A,,Clear,0,2014-02-08 19:15:00
1:35 PM,13.5,3.2,64,30.07,10.0,South,4.6,-,N/A,,Clear,190,2014-02-08 19:35:00
1:54 PM,14.0,3.6,63,30.07,10.0,SSW,4.6,-,N/A,,Clear,200,2014-02-08 19:54:00
2:15 PM,14.5,3.2,61,30.07,10.0,South,4.6,-,N/A,,Clear,190,2014-02-08 20:15:00
2:35 PM,14.4,3.2,61,30.07,10.0,Calm,Calm,-,N/A,,Scattered Clouds,0,2014-02-08 20:35:00
2:55 PM,14.0,3.2,62,30.08,10.0,Calm,Calm,-,N/A,,Scattered Clouds,0,2014-02-08 20:55:00
3:15 PM,15.1,3.9,61,30.08,10.0,WSW,3.5,-,N/A,,Clear,250,2014-02-08 21:15:00
3:35 PM,15.3,4.5,62,30.08,10.0,WSW,3.5,-,N/A,,Clear,240,2014-02-08 21:35:00
3:55 PM,14.7,4.1,63,30.08,10.0,West,3.5,-,N/A,,Clear,260,2014-02-08 21:55:00
4:15 PM,13.8,3.7,64,30.09,10.0,Calm,Calm,-,N/A,,Clear,0,2014-02-08 22:15:00
4:34 PM,13.1,3.9,67,30.09,10.0,Calm,Calm,-,N/A,,Scattered Clouds,0,2014-02-08 22:34:00
4:55 PM,13.3,4.1,67,30.09,10.0,Calm,Calm,-,N/A,,Mostly Cloudy,0,2014-02-08 22:55:00
5:15 PM,12.2,3.7,69,30.09,10.0,Calm,Calm,-,N/A,,Scattered Clouds,0,2014-02-08 23:15:00
5:35 PM,11.1,3.0,70,30.09,10.0,Calm,Calm,-,N/A,,Clear,0,2014-02-08 23:35:00
5:55 PM,7.2,1.0,76,30.09,10.0,Calm,Calm,-,N/A,,Clear,0,2014-02-08 23:55:00
6:14 PM,6.8,1.4,79,30.10,10.0,Calm,Calm,-,N/A,,Clear,0,2014-02-09 00:14:00
6:35 PM,3.6,-1.5,80,30.11,10.0,Calm,Calm,-,N/A,,Clear,0,2014-02-09 00:35:00
6:55 PM,2.7,-1.1,84,30.12,10.0,Calm,Calm,-,N/A,,Scattered Clouds,0,2014-02-09 00:55:00
7:14 PM,5.5,1.8,84,30.13,10.0,Calm,Calm,-,N/A,,Overcast,0,2014-02-09 01:14:00
7:35 PM,4.5,0.5,84,30.13,10.0,Calm,Calm,-,N/A,,Mostly Cloudy,0,2014-02-09 01:35:00
7:55 PM,4.1,-0.4,82,30.13,10.0,Calm,Calm,-,N/A,,Overcast,0,2014-02-09 01:55:00
8:14 PM,4.1,-0.0,83,30.13,10.0,Calm,Calm,-,N/A,,Overcast,0,2014-02-09 02:14:00
8:35 PM,3.0,-0.4,86,30.13,10.0,Calm,Calm,-,N/A,,Overcast,0,2014-02-09 02:35:00
8:54 PM,4.5,0.7,84,30.14,10.0,Calm,Calm,-,N/A,,Overcast,0,2014-02-09 02:54:00
9:15 PM,4.1,0.1,84,30.13,10.0,Calm,Calm,-,N/A,,Mostly Cloudy,0,2014-02-09 03:15:00
9:35 PM,3.6,-0.9,82,30.14,10.0,Calm,Calm,-,N/A,,Mostly Cloudy,0,2014-02-09 03:35:00
9:54 PM,4.5,-0.0,82,30.14,10.0,Calm,Calm,-,N/A,,Overcast,0,2014-02-09 03:54:00
10:15 PM,5.7,1.2,82,30.13,10.0,Calm,Calm,-,N/A,,Overcast,0,2014-02-09 04:15:00
10:35 PM,5.0,0.3,81,30.14,10.0,Calm,Calm,-,N/A,,Overcast,0,2014-02-09 04:35:00
10:54 PM,4.1,-0.6,81,30.14,10.0,Calm,Calm,-,N/A,,Scattered Clouds,0,2014-02-09 04:54:00
11:15 PM,2.8,-1.5,82,30.14,10.0,WNW,3.5,-,N/A,,Clear,300,2014-02-09 05:15:00
11:35 PM,3.2,-1.3,82,30.15,10.0,NW,3.5,-,N/A,,Clear,320,2014-02-09 05:35:00
11:54 PM,3.9,-1.5,78,30.14,10.0,NNW,3.5,-,N/A,,Clear,330,2014-02-09 05:54:00